Location: Newark
(0.5300°S, 127.4800°E)
Time: 04:10:10
(UTC+00:00)

Transit 4A - Pass Details

Date: 02 October 2019
Orbit: 867 x 978 km, 66.8° (Epoch: 18 October)

Event Time Altitude Azimuth Distance (km) Brightness Sun altitude
Rises 10:38:28 0° 343° (NNW) 3,465 11.1 -19.7°
Reaches altitude 10° 10:40:57 10° 344° (NNW) 2,518 10.3 -20.3°
Maximum altitude 10:46:45 78° 71° (ENE) 887 7.6 -21.7°
Drops below altitude 10° 10:52:32 10° 157° (SSE) 2,508 10.0 -23.2°
Enters shadow 10:52:45 - 157° (SSE) 2,588 10.0 -23.2°
